Guam Agana, GU

9:19 AM ChST on October 22, 2019 (GMT +1000)
Guam International

Weather History for PGUM - August, 2019

Change the Weather History Date:

Monday, August 5, 2019

  Actual Average Record
Temperature  
Mean Temperature 79 °F -  
Max Temperature 81 °F 85 °F 91 °F (2013)
Min Temperature 77 °F 75 °F 73 °F (2007)
Cooling Degree Days 14    
Growing Degree Days 29 (Base 50)    
Moisture  
Dew Point 75 °F    
Average Humidity 88    
Maximum Humidity 90    
Minimum Humidity 81    
Precipitation  
Precipitation 0.59 in - - ()
Sea Level Pressure  
Sea Level Pressure 29.70 in    
Wind  
Wind Speed 11 mph (SW)    
Max Wind Speed 28 mph    
Max Gust Speed 38 mph    
Visibility 6 miles    
Events Rain    
Averages and records for this station are not official NWS values.
T = Trace of Precipitation, MM = Missing Value Source: NWS Daily Summary

Daily Weather History Graph

Daily Weather History Graph

Search for Another Location

Airport or City:

Astronomy

Aug. 05, 2019 Rise Set
Actual Time 6:06 AM ChST 6:47 PM ChST
Civil Twilight 5:43 AM ChST 7:09 PM ChST
Nautical Twilight 5:17 AM ChST 7:35 PM ChST
Astronomical Twilight 4:50 AM ChST 8:02 PM ChST
Moon 9:57 AM ChST (8/5) 10:23 PM ChST (8/5)
Length of Visible Light 13h 25m
Length of Day
12h 40m
Waxing Crescent, 22% of the Moon is Illuminated
Aug 5
Waxing Crescent
Aug 8
First Quarter
Aug 15
Full
Aug 24
Last Quarter
Aug 30
New

Hourly Weather History & Observations

Time (ChST) Temp. Heat Index Dew Point Humidity Pressure Visibility Wind Dir Wind Speed Gust Speed Precip Events Conditions
12:54 AM 79.0 °F - 75.9 °F 90% 29.70 in 2.5 mi West 10.4 mph - 0.03 in Rain Heavy Rain
1:04 AM 79.0 °F - 75.9 °F 90% 29.72 in 3.0 mi WSW 11.5 mph - 0.06 in Rain Heavy Rain
1:16 AM 78.1 °F - 75.0 °F 90% 29.71 in 10.0 mi WSW 8.1 mph - 0.07 in   Overcast
1:23 AM 79.0 °F - 75.9 °F 90% 29.72 in 7.0 mi West 16.1 mph 19.6 mph 0.08 in Rain Light Rain
1:30 AM 79.0 °F - 75.0 °F 88% 29.71 in 9.0 mi West 15.0 mph - 0.08 in Rain Light Rain
1:54 AM 79.0 °F - 75.0 °F 88% 29.68 in 9.0 mi West 10.4 mph - 0.08 in Rain Light Rain
2:23 AM 79.0 °F - 75.0 °F 88% 29.69 in 9.0 mi WSW 6.9 mph - 0.01 in   Mostly Cloudy
2:46 AM 79.0 °F - 75.0 °F 88% 29.69 in 9.0 mi SW 9.2 mph - 0.01 in   Mostly Cloudy
2:54 AM 79.0 °F - 75.0 °F 88% 29.66 in 8.0 mi SW 8.1 mph - 0.01 in   Overcast
3:10 AM 79.0 °F - 75.9 °F 90% 29.69 in 2.5 mi SW 16.1 mph 21.9 mph 0.00 in Rain Rain
3:16 AM 78.1 °F - 75.0 °F 90% 29.68 in 1.0 mi SW 9.2 mph 21.9 mph 0.11 in Rain Heavy Rain
3:26 AM 79.0 °F - 75.9 °F 90% 29.69 in 3.0 mi WSW 8.1 mph 19.6 mph 0.21 in Rain Heavy Rain
3:46 AM 79.0 °F - 75.9 °F 90% 29.68 in 9.0 mi WSW 8.1 mph - 0.22 in   Mostly Cloudy
3:54 AM 80.1 °F 85.4 °F 75.9 °F 87% 29.66 in 9.0 mi WSW 9.2 mph - 0.22 in   Mostly Cloudy
4:54 AM 79.0 °F - 75.0 °F 88% 29.65 in 10.0 mi SSW 6.9 mph - 0.00 in   Overcast
5:07 AM 78.1 °F - 75.0 °F 90% 29.69 in 1.8 mi WSW 18.4 mph 31.1 mph 0.01 in Rain Heavy Rain
5:17 AM 77.0 °F - 73.9 °F 90% 29.68 in 3.0 mi SSW 8.1 mph 21.9 mph 0.11 in Rain Light Rain
5:54 AM 77.0 °F - 73.9 °F 90% 29.67 in 10.0 mi SSW 4.6 mph - 0.15 in   Scattered Clouds
6:13 AM 78.1 °F - 75.0 °F 90% 29.69 in 1.8 mi SSW 4.6 mph - 0.04 in Rain Heavy Rain
6:23 AM 78.1 °F - 75.0 °F 90% 29.69 in 1.8 mi WSW 4.6 mph - 0.09 in Rain Heavy Rain
6:32 AM 78.1 °F - 75.0 °F 90% 29.70 in 4.0 mi SW 12.7 mph 24.2 mph 0.15 in Rain Light Rain
6:54 AM 78.1 °F - 75.0 °F 90% 29.68 in 10.0 mi WSW 11.5 mph 18.4 mph 0.16 in   Overcast
7:05 AM 78.1 °F - 75.0 °F 90% 29.70 in 10.0 mi SW 5.8 mph - N/A   Mostly Cloudy
7:18 AM 79.0 °F - 75.9 °F 90% 29.72 in 10.0 mi SW 6.9 mph - N/A   Mostly Cloudy
7:29 AM 78.1 °F - 75.0 °F 90% 29.71 in 10.0 mi SSW 9.2 mph - N/A   Scattered Clouds
7:40 AM 79.0 °F - 75.0 °F 88% 29.72 in 10.0 mi SW 10.4 mph - N/A   Mostly Cloudy
7:46 AM 79.0 °F - 75.0 °F 88% 29.72 in 10.0 mi SW 10.4 mph - N/A   Mostly Cloudy
7:54 AM 79.0 °F - 75.0 °F 88% 29.70 in 10.0 mi SSW 8.1 mph - N/A   Mostly Cloudy
8:14 AM 79.0 °F - 75.0 °F 88% 29.72 in 1.8 mi SW 15.0 mph 23.0 mph 0.01 in Rain Heavy Rain
8:21 AM 79.0 °F - 75.9 °F 90% 29.73 in 3.0 mi SW 10.4 mph 23.0 mph 0.03 in Rain Light Rain
8:31 AM 79.0 °F - 75.9 °F 90% 29.73 in 4.0 mi SSW 9.2 mph - 0.03 in Rain Light Rain
8:54 AM 80.1 °F 85.8 °F 77.0 °F 90% 29.71 in 9.0 mi WSW 10.4 mph 18.4 mph 0.05 in   Overcast
9:22 AM 81.0 °F 87.9 °F 77.0 °F 88% 29.74 in 10.0 mi WSW 15.0 mph 20.7 mph N/A   Mostly Cloudy
9:46 AM 81.0 °F 87.9 °F 77.0 °F 88% 29.73 in 10.0 mi WSW 13.8 mph 23.0 mph 0.00 in   Overcast
9:54 AM 81.0 °F 87.9 °F 77.0 °F 88% 29.71 in 10.0 mi WSW 12.7 mph - 0.00 in   Mostly Cloudy
10:17 AM 81.0 °F 87.9 °F 77.0 °F 88% 29.73 in 10.0 mi WSW 13.8 mph - N/A   Mostly Cloudy
10:28 AM 81.0 °F 87.9 °F 77.0 °F 88% 29.73 in 10.0 mi WSW 15.0 mph 25.3 mph N/A   Mostly Cloudy
10:41 AM 81.0 °F 87.3 °F 75.9 °F 85% 29.73 in 9.0 mi WSW 18.4 mph 25.3 mph 0.00 in Rain Light Rain
10:47 AM 80.1 °F 85.1 °F 75.0 °F 85% 29.73 in 10.0 mi WSW 12.7 mph 25.3 mph 0.00 in   Mostly Cloudy
10:54 AM 81.0 °F 87.3 °F 75.9 °F 85% 29.71 in 10.0 mi WSW 13.8 mph - 0.00 in   Mostly Cloudy
11:21 AM 81.0 °F 87.3 °F 75.9 °F 85% 29.74 in 2.5 mi WSW 18.4 mph 26.5 mph 0.00 in Rain Light Rain
11:30 AM 79.0 °F - 75.9 °F 90% 29.73 in 3.0 mi WSW 15.0 mph 25.3 mph 0.04 in Rain Light Rain
11:54 AM 80.1 °F 85.4 °F 75.9 °F 87% 29.70 in 5.0 mi WSW 17.3 mph 25.3 mph 0.04 in Rain Light Rain
12:13 PM 79.0 °F - 75.0 °F 88% 29.73 in 9.0 mi WSW 27.6 mph 38.0 mph 0.01 in Rain Light Rain
12:19 PM 78.1 °F - 73.9 °F 87% 29.73 in 3.0 mi WSW 25.3 mph 38.0 mph 0.01 in Rain Light Rain
12:37 PM 77.0 °F - 73.0 °F 88% 29.72 in 3.0 mi WSW 16.1 mph - 0.08 in Rain Rain
12:54 PM 78.1 °F - 73.9 °F 87% 29.69 in 10.0 mi West 20.7 mph - 0.09 in   Overcast
1:10 PM 78.1 °F - 75.0 °F 90% 29.71 in 10.0 mi WSW 15.0 mph 23.0 mph N/A   Overcast
1:54 PM 79.0 °F - 75.0 °F 88% 29.68 in 10.0 mi WSW 11.5 mph - 0.00 in   Overcast
2:07 PM 79.0 °F - 75.0 °F 88% 29.70 in 9.0 mi WSW 13.8 mph - 0.00 in Rain Light Rain
2:52 PM 80.6 °F 86.2 °F 75.2 °F 84% 29.69 in 10.0 mi WSW 13.8 mph 24.2 mph 0.00 in   Mostly Cloudy
2:54 PM 81.0 °F 87.3 °F 75.9 °F 85% 29.67 in 10.0 mi West 15.0 mph - 0.00 in   Mostly Cloudy
3:13 PM 79.0 °F - 75.0 °F 88% 29.70 in 1.8 mi WSW 16.1 mph 23.0 mph 0.01 in Rain Heavy Rain
3:20 PM 78.1 °F - 73.9 °F 87% 29.70 in 3.0 mi SW 6.9 mph - 0.05 in Rain Light Rain
3:31 PM 79.0 °F - 75.0 °F 88% 29.69 in 10.0 mi SW 12.7 mph - 0.05 in   Overcast
3:54 PM 80.1 °F 85.1 °F 75.0 °F 85% 29.67 in 10.0 mi WSW 10.4 mph - 0.05 in   Overcast
4:44 PM 80.1 °F 85.4 °F 75.9 °F 87% 29.69 in 8.0 mi SSW 6.9 mph - 0.00 in   Overcast
4:50 PM 78.8 °F - 75.2 °F 89% 29.69 in 1.8 mi SSW 9.2 mph 19.6 mph 0.03 in Rain Heavy Rain
4:56 PM 78.1 °F - 75.0 °F 90% 29.69 in 3.0 mi South 6.9 mph 19.6 mph 0.00 in Rain Light Rain
5:05 PM 78.1 °F - 75.0 °F 90% 29.69 in 4.0 mi SSW 5.8 mph - 0.00 in Rain Light Rain
5:27 PM 79.0 °F - 75.9 °F 90% 29.70 in 2.5 mi SW 13.8 mph 19.6 mph 0.06 in Rain Light Rain
5:29 PM 79.0 °F - 75.0 °F 88% 29.70 in 3.0 mi SW 15.0 mph 20.7 mph 0.06 in Rain Light Rain
5:40 PM 79.0 °F - 75.0 °F 88% 29.70 in 5.0 mi SW 15.0 mph 24.2 mph 0.07 in Rain Rain
5:54 PM 78.1 °F - 75.0 °F 90% 29.68 in 2.0 mi WSW 13.8 mph - 0.11 in Rain Heavy Rain
6:14 PM 78.1 °F - 75.0 °F 90% 29.71 in 2.0 mi WSW 8.1 mph - 0.10 in Rain Light Rain
6:34 PM 79.0 °F - 75.0 °F 88% 29.73 in 2.0 mi West 16.1 mph - 0.14 in Rain Rain
6:42 PM 77.0 °F - 73.9 °F 90% 29.72 in 1.2 mi West 17.3 mph 31.1 mph 0.28 in Rain Heavy Rain
6:47 PM 77.0 °F - 73.9 °F 90% 29.72 in 2.5 mi WSW 15.0 mph 24.2 mph 0.29 in Rain Light Rain
6:54 PM 77.0 °F - 73.9 °F 90% 29.71 in 6.0 mi WSW 12.7 mph - 0.29 in Rain Light Rain
7:31 PM 78.1 °F - 75.0 °F 90% 29.73 in 5.0 mi WSW 11.5 mph - 0.09 in Rain Heavy Rain
7:54 PM 79.0 °F - 75.0 °F 88% 29.71 in 5.0 mi SSW 6.9 mph - 0.11 in Rain Light Rain
8:54 PM 79.0 °F - 75.0 °F 88% 29.72 in 8.0 mi SSW 6.9 mph - 0.02 in Rain Light Rain
9:54 PM 78.1 °F - 75.0 °F 90% 29.72 in 9.0 mi South 5.8 mph - 0.03 in Rain Light Rain
10:29 PM 78.1 °F - 75.0 °F 90% 29.75 in 1.8 mi SSW 8.1 mph - 0.05 in Rain Heavy Rain
10:42 PM 78.1 °F - 75.0 °F 90% 29.75 in 4.0 mi SSW 6.9 mph - 0.19 in Rain Light Rain
10:54 PM 78.1 °F - 75.0 °F 90% 29.73 in 6.0 mi SW 13.8 mph 23.0 mph 0.20 in Rain Light Rain
11:54 PM 78.1 °F - 73.9 °F 87% 29.72 in 6.0 mi SSW 11.5 mph 17.3 mph 0.02 in Rain Light Rain